Weather History for Araxos, Greece

Change the Weather History Date:

Wednesday, October 19, 2011

  Actual Average Record
Temperature  
Mean Temperature 54 °F -  
Max Temperature 66 °F 67 °F 80 °F (2012)
Min Temperature 42 °F 52 °F 42 °F (2011)
Degree Days  
Heating Degree Days 11    
Growing Degree Days 4 (Base 50)    
Moisture  
Dew Point 51 °F    
Average Humidity 84    
Maximum Humidity 100    
Minimum Humidity 68    
Precipitation  
Precipitation 0.00 in - - ()
Sea Level Pressure  
Sea Level Pressure 30.26 in    
Wind  
Wind Speed 1 mph ()    
Max Wind Speed 6 mph    
Max Gust Speed -    
Visibility 6.2 miles    
Events      
Averages and records for this station are not official NWS values.
T = Trace of Precipitation, MM = Missing Value Source: Averaged Metar Reports

Daily Weather History Graph

Daily Weather History Graph

Search for Another Location

Airport:

Trip Planner

Search our weather history database for the weather conditions in past years. The results will help you decide how hot, cold, wet, or windy it might be!

Date:

Astronomy

Oct. 19, 2011 Rise Set
Actual Time 7:46 AM EEST 6:51 PM EEST
Civil Twilight 7:19 AM EEST 7:18 PM EEST
Nautical Twilight 6:48 AM EEST 7:49 PM EEST
Astronomical Twilight 6:18 AM EEST 8:19 PM EEST
Moon No Moon Rise 2:02 PM EEST (10/19)
Length of Visible Light 11h 58m
Length of Day
11h 05m
Waning Gibbous, 58% of the Moon is Illuminated
Oct 19
Waning Gibbous
Oct 20
Last Quarter
Oct 26
New
Nov 2
First Quarter
Nov 10
Full

Hourly Weather History & Observations

Time (EEST) Temp. Dew Point Humidity Pressure Visibility Wind Dir Wind Speed Gust Speed Precip Events Conditions
12:50 AM 48.2 °F 46.4 °F 93% 30.24 in - Calm Calm - N/A   Clear
1:50 AM 46.4 °F 44.6 °F 93% 30.24 in - Calm Calm - N/A   Clear
2:50 AM 46.4 °F 44.6 °F 93% 30.24 in - Variable 2.3 mph - N/A   Clear
3:50 AM 46.4 °F 44.6 °F 93% 30.24 in - Variable 2.3 mph - N/A   Clear
4:50 AM 46.4 °F 44.6 °F 93% 30.24 in - Variable 2.3 mph - N/A   Clear
5:50 AM 44.6 °F 42.8 °F 93% 30.24 in - Calm Calm - N/A   Clear
6:20 AM 44.6 °F 42.8 °F 93% 30.24 in - Calm Calm - N/A   Clear
6:50 AM 42.8 °F 42.8 °F 100% 30.24 in - Calm Calm - N/A   Clear
7:20 AM 42.8 °F 42.8 °F 100% 30.24 in - Calm Calm - N/A   Clear
7:50 AM 42.8 °F 41.0 °F 93% 30.27 in - Calm Calm - N/A   Clear
8:20 AM 42.8 °F 41.0 °F 93% 30.27 in - Calm Calm - N/A   Clear
8:50 AM 46.4 °F 42.8 °F 87% 30.27 in - Calm Calm - N/A   Clear
9:20 AM 51.8 °F 48.2 °F 88% 30.27 in - Calm Calm - N/A   Clear
9:50 AM 55.4 °F 50.0 °F 82% 30.30 in - Calm Calm - N/A   Clear
10:20 AM 57.2 °F 51.8 °F 82% 30.30 in - Calm Calm - N/A   Clear
10:50 AM 60.8 °F 53.6 °F 77% 30.30 in - Calm Calm - N/A   Clear
11:20 AM 60.8 °F 53.6 °F 77% 30.30 in - Calm Calm - N/A   Clear
11:50 AM 62.6 °F 51.8 °F 68% 30.30 in - Calm Calm - N/A   Clear
12:20 PM 62.6 °F 51.8 °F 68% 30.30 in - Calm Calm - N/A   Clear
12:50 PM 64.4 °F 55.4 °F 73% 30.30 in - Calm Calm - N/A   Clear
1:20 PM 64.4 °F 55.4 °F 73% 30.30 in - Calm Calm - N/A   Clear
1:50 PM 64.4 °F 55.4 °F 73% 30.27 in 6.2 mi West 5.8 mph - N/A   Partly Cloudy
2:20 PM 64.4 °F 55.4 °F 73% 30.27 in 6.2 mi West 5.8 mph - N/A   Partly Cloudy
2:50 PM 66.2 °F 55.4 °F 68% 30.27 in - West 4.6 mph - N/A   Clear
3:20 PM 66.2 °F 55.4 °F 68% 30.27 in - West 4.6 mph - N/A   Clear
3:50 PM 66.2 °F 57.2 °F 73% 30.24 in - West 4.6 mph - N/A   Clear
4:20 PM 66.2 °F 57.2 °F 73% 30.24 in - West 4.6 mph - N/A   Clear
4:50 PM 66.2 °F 57.2 °F 73% 30.24 in - West 5.8 mph - N/A   Clear
5:20 PM 66.2 °F 57.2 °F 73% 30.24 in - West 5.8 mph - N/A   Clear
5:50 PM 66.2 °F 59.0 °F 78% 30.24 in - West 4.6 mph - N/A   Clear
6:20 PM 66.2 °F 59.0 °F 78% 30.24 in - West 4.6 mph - N/A   Clear
6:50 PM 62.6 °F 59.0 °F 88% 30.24 in 6.2 mi Calm Calm - N/A   Partly Cloudy
7:20 PM 60.8 °F 57.2 °F 88% 30.24 in 6.2 mi Calm Calm - N/A   Partly Cloudy
7:50 PM 59.0 °F 55.4 °F 88% 30.24 in 6.2 mi Calm Calm - N/A   Partly Cloudy
8:20 PM 57.2 °F 55.4 °F 94% 30.24 in 6.2 mi Calm Calm - N/A   Partly Cloudy
8:50 PM 55.4 °F 53.6 °F 94% 30.21 in - Calm Calm - N/A   Clear
9:50 PM 53.6 °F 51.8 °F 94% 30.21 in - Calm Calm - N/A   Clear
10:50 PM 51.8 °F 50.0 °F 94% 30.21 in - Calm Calm - N/A   Clear
11:50 PM 51.8 °F 50.0 °F 94% 30.21 in - Calm Calm - N/A   Clear